weather.gov     
National Weather Service

Regional Weather Roundup
NWS Homepage
This page is being discontinued on March 12, 2014.
The same data is available at this site. Please update your bookmarks.
Thank you, and we apologize for the inconvenience.
Please send an email to SR-SRH.Webmaster@noaa.gov with any concerns.


Current Version
Previous Version:    01  02  03  04  05  06  07  08  09  10  11  12  13  14  15  16  17  18  19  20  21  22  23  24  25  26  27  28  29  30  
   31  32  33  34  35  36  37  38  39  40  41  42  43  44  45  46  47  48  49  50  51  52  53  54  55  56  57  58  59  60  
[Printable]
407
ASUS46 KLOX 220302
RWRCA

SOUTHERN CALIFORNIA WEATHER ROUNDUP
NATIONAL WEATHER SERVICE OXNARD CALIFORNIA
700 PM PST FRI NOV 21 2014

NOTE: "FAIR" INDICATES FEW OR NO CLOUDS BELOW 12,000 FEET WITH NO
SIGNIFICANT WEATHER AND/OR OBSTRUCTIONS TO VISIBILITY.

  -  STATIONS PRECEEDED BY AN ASTERISK (*) ARE NOT NWS OR FAA
     STATIONS AND ARE NOT SUBJECT TO NWS AND FAA QUALITY CONTROL.

CAZ041-042-087-220400-
LA AND ORANGE COUNTY COASTAL AREAS


CITY           SKY/WX    TMP DP  RH WIND       PRES   REMARKS
L.A. DOWNTOWN  CLEAR     64  51  62 CALM      29.99R
L.A. AIRPORT   PTCLDY    64  57  78 CALM      29.99R
LONG BEACH     CLEAR     65  48  54 CALM      29.99R

CITY           SKY/WX    TMP DP  RH WIND       PRES   REMARKS
AVALON           N/A     55 N/A N/A S2          N/A
FULLERTON      CLEAR     63  46  54 CALM      29.99R
*GETTY CENTER    N/A     61  37  41 VRB8        N/A
HAWTHORNE      CLEAR     66  56  70 CALM      29.99R
*LOS ALAMITOS  CLEAR     61  48  62 E3        30.00R
*REDONDO BEACH   N/A     64  56  75 CALM      29.98S
SANTA ANA      CLEAR     66  51  58 CALM      30.00R
STA MONICA APT CLEAR     64  53  67 NE5       29.99R
TORRANCE       CLEAR     66  55  68 SW12      30.00R
*UCLA            N/A     63  39  42 N8        29.97R

$$

CAZ547-548-048-220400-
LA COUNTY VALLEYS AND INLAND EMPIRE


CITY           SKY/WX    TMP DP  RH WIND       PRES   REMARKS
BURBANK        CLEAR     62  44  51 N5        30.00R
VAN NUYS       CLEAR     63  38  39 NW5       30.00R

CITY           SKY/WX    TMP DP  RH WIND       PRES   REMARKS
CORONA AIRPORT CLEAR     57  48  72 CALM      30.01R
*CHATSWORTH      N/A     62  47  58 CALM      29.98R
CHINO          CLEAR     58  46  64 W5        30.02R
MARCH AFB      CLEAR     55  44  68 NW3       30.02R
*NORTHRIDGE      N/A     61  36  39 CALM        N/A
ONTARIO        CLEAR     61  47  59 W6        30.00R
RIVERSIDE      CLEAR     61  49  64 W3        30.01R
SAN BERNARDINO CLEAR     59  46  63 CALM      30.01R
*WHITEMAN AP   CLEAR     63  37  39 NW7       30.04R
*WOODLAND HILL   N/A     57  43  58 SE2         N/A

$$

CAZ054-055-220400-
LA AND SAN BERNARDINO COUNTY MOUNTAINS


CITY           SKY/WX    TMP DP  RH WIND       PRES   REMARKS
*ACTON           N/A     52  36  55 SE3         N/A
*BIG BEAR AIRP CLEAR     32  27  80 CALM      30.12R
*BIG PINES       N/A     35  24  65 CALM        N/A
*CHILAO          N/A     45  30  56 NE15        N/A
MT WILSON NWS    N/A     45  27  49 MISG        N/A
SANDBERG       CLOUDY    42  38  85 NW28      30.11R FOG     WCI  32
*WARM SPRINGS    N/A     49  32  51 W12         N/A

$$

CAZ028-029-059-060-099-220400-
ANTELOPE VALLEY AND SURROUNDING AREAS


CITY           SKY/WX    TMP DP  RH WIND       PRES   REMARKS
LANCASTER      CLEAR     49  41  74 W17       30.06R
PALMDALE       CLEAR     49  39  68 W3        30.08R

CITY           SKY/WX    TMP DP  RH WIND       PRES   REMARKS
29 PALMS       CLEAR     56  32  40 W10       30.08R
BARSTOW/DAGGET CLEAR     60  32  34 SW8       30.02R
BISHOP         PTCLDY    47  15  27 CALM      30.04R
CHINA LAKE     PTCLDY    56  35  45 S10       30.01R
MOJAVE         FAIR      52  34  50 W12       30.05R
NEEDLES        CLEAR     60  20  21 W8        29.95R
VICTORVILLE    CLEAR     52  36  54 W14G21    30.05R

$$

CAZ039-040-220400-
VENTURA AND SANTA BARBARA COUNTY COAST


CITY           SKY/WX    TMP DP  RH WIND       PRES   REMARKS
CAMARILLO      MOCLDY    62  53  72 NE3       30.00R
NWS OXNARD       N/A     61  54  78 CALM      29.99R
OXNARD AIRPORT PTCLDY    61  57  87 NE5       29.99R
*POINT MUGU    MOCLDY    64  57  78 CALM      30.00R
SBA APT/GOLETA CLEAR     67  35  30 CALM      29.98R
*SANTA BARBARA   N/A     69  32  25 CALM      30.06R
*VENTURA         N/A     61  48  62 CALM      30.05R

$$

CAZ044-045-220400-
VENTURA COUNTY VALLEYS


CITY           SKY/WX    TMP DP  RH WIND       PRES   REMARKS
*SIMI VALLEY     N/A     56  46  68 CALM      30.00R
*OJAI            N/A     51  44  75 CALM      29.99R
*FILLMORE        N/A     57  46  66 CALM      29.92R

$$

CAZ053-220400-
VENTURA COUNTY MOUNTAINS


CITY           SKY/WX    TMP DP  RH WIND       PRES   REMARKS
*ROSE VALLEY     N/A     41  39  93 MISG        N/A

$$

CAZ034-035-036-220400-
CENTRAL COAST AND SANTA YNEZ VALLEY


CITY           SKY/WX    TMP DP  RH WIND       PRES   REMARKS
SAN LUIS OBISP PTCLDY    57  53  86 NW6       30.09R
SANTA MARIA    CLEAR     58  47  66 N9        30.09R

CITY           SKY/WX    TMP DP  RH WIND       PRES   REMARKS
*CAL POLY SLO    N/A     57  48  72 S3G18       N/A
*LOMPOC        CLEAR     57  48  72 NW9       30.08R
*PISMO BEACH     N/A     60  51  71 CALM      30.10S
*SANTA YNEZ    FAIR      59  41  51 NW6       30.05R

$$

CAZ037-038-051-220400-
SAN LUIS OBISPO COUNTY INTERIOR AND CUYAMA VALLEY


CITY           SKY/WX    TMP DP  RH WIND       PRES   REMARKS
*CUYAMA          N/A     47  42  83 E1        30.12R
PASO ROBLES    PTCLDY    53  44  71 SW3       30.12R

$$

CAZ032-033-061-220400-
SOUTHERN DESERTS


CITY           SKY/WX    TMP DP  RH WIND       PRES   REMARKS
BLYTHE         CLEAR     63  32  31 W3        29.95R
IMPERIAL       CLEAR     63  42  46 CALM      29.93R
PALM SPRINGS   CLEAR     63  43  48 CALM      29.98R
THERMAL        CLEAR     62  42  47 NW7       29.93R

$$

ELSEWHERE ACROSS THE WESTERN UNITED STATES AND MEXICO


CITY           SKY/WX    TMP DP  RH WIND       PRES   REMARKS
DENVER, CO     PTCLDY    36  24  62 SW7       29.97R WCI  30
GRAND CANYON,  CLEAR     23  11  60 NE5       30.09R WCI  17
HONOLULU, HI   PTCLDY    81  69  67 NE14      29.97R
KAHULUI, MAUI  PTCLDY    79  68  69 NE21G31   29.97R
LAKE TAHOE, CA CLOUDY    42  30  62 S7        30.10S
LAS VEGAS, NV  CLEAR     60  27  28 S10       29.96R
MAMMOTH LAKES, CLOUDY    41  14  33 CALM      30.13R
MEXICO CITY, M CLOUDY    61  50  67 E7        30.33R
PHOENIX, AZ    CLEAR     61  34  36 SW6       29.92R
PORTLAND, OR   RAIN      56  54  93 S24G33    29.43S FOG
RENO, NV       CLOUDY    50  31  48 E8        30.05R
SALT LAKE CITY PTCLDY    37  29  72 SE3       29.99F
SAN DIEGO, CA  CLEAR     64  53  67 VRB5      30.03R
SAN FRANCISCO, CLOUDY    61  54  77 SW3       30.11R
SAN JOSE, CA   MOCLDY    58  50  75 CALM      30.10F
SEATTLE, WA    LGT RAIN  50  48  93 S12       29.33R
TIJUANA, MEX   CLEAR     59  52  77 N5        30.04R

$$

STATION/POSITION TIME  TEMP    WIND        PRES    VSBY  WAVE
                       AIR SEA DIR/SP/G                  HT/PER
                 (UTC) (F)     (DEG/KT/KT) (MB)    (MI)  (FT/S)
POINT ARGUELLO B NOT AVBL
WEST SANTA BARBA 0200   62 62  320/ 25/ 31 1016.0R         6/14
POINT CONCEPTION NOT AVBL
EAST SANTA BARBA 0100   67 65  300/ 17/ 19 1014.5
SANTA MONICA BAY 0200   65 66  300/  8/ 10 1015.4R         5/ 7




U.S. Dept. of Commerce
NOAA National Weather Service
1325 East West Highway
Silver Spring, MD 20910
E-mail: w-nws.webmaster@noaa.gov
Page last modified: May 16, 2007
NATIONAL WEATHER SERVICE: for Safety, for Work, for Fun - FOR LIFE